EW6157 Weather Reports


time (UTC)temp
C
wind
direction
speed
KPH
gust
KPH
rain 1hr
cm
rain 24hr
cm
rain mn
cm
humidity
%
barometer
mb
20260510201511 10 86 8.0 19.3 0.41 0.41 0.41 93 1017.4
20260510200015 10 78 3.2 11.3 0.38 0.38 0.38 93 1018.2
20260510194509 10 105 11.3 25.7 0.33 0.33 0.33 92 1017.1
20260510193006 10 70 6.4 19.3 0.23 0.23 0.23 91 1018.4
20260510191504 12 79 3.2 25.7 0.00 0.00 0.00 80 1018.4
20260510184556 12 53 16.1 46.7 0.00 0.00 0.00 76 1016.7
20260510183053 13 44 17.7 38.6 0.00 0.00 0.00 75 1016.4
20260510181553 13 48 14.5 30.6 0.00 0.00 0.00 76 1016.0
20260510180104 12 13 11.3 24.1 0.00 0.00 0.00 78 1015.8
20260510174548 12 12 11.3 22.5 0.00 0.00 0.00 82 1015.1
20260510173047 11 323 12.9 25.7 0.00 0.00 0.00 85 1015.2
20260510171550 11 8 6.4 24.1 0.00 0.00 0.00 87 1015.3
20260510170045 11 314 9.7 20.9 0.00 0.00 0.00 91 1014.8
20260510164548 11 9 8.0 27.4 0.00 0.00 0.00 93 1014.7
20260510163050 10 354 9.7 20.9 0.00 0.00 0.00 92 1014.5
20260510161550 10 44 8.0 25.7 0.00 0.00 0.00 92 1014.3
20260510160045 11 344 8.0 22.5 0.00 0.00 0.00 92 1014.2
20260510154529 11 354 6.4 25.7 0.00 0.00 0.00 91 1014.0
20260510153025 12 18 11.3 30.6 0.00 0.00 0.00 90 1013.3
20260510151521 12 289 8.0 20.9 0.00 0.00 0.00 89 1012.9
20260510150022 12 342 6.4 20.9 0.00 0.00 0.00 89 1012.8
20260510144523 13 337 4.8 17.7 0.00 0.00 0.00 89 1012.6
20260510143017 13 36 9.7 19.3 0.00 0.00 0.00 88 1012.3
20260510141518 13 290 6.4 20.9 0.00 0.00 0.00 85 1012.1
20260510140004 13 354 8.0 20.9 0.00 0.00 0.00 82 1011.9
20260510134501 13 49 11.3 25.7 0.00 0.00 0.00 83 1011.4
20260510133059 13 328 6.4 19.3 0.00 0.00 0.00 82 1011.2
20260510131555 13 261 9.7 22.5 0.00 0.00 0.00 82 1010.7
20260510130051 14 328 9.7 20.9 0.00 0.00 0.00 81 1010.2
20260510124550 15 296 6.4 16.1 0.00 0.00 0.00 82 1009.6
20260510123043 15 101 4.8 14.5 0.00 0.00 0.00 81 1009.2
20260510121541 15 11 8.0 17.7 0.00 0.00 0.00 80 1008.6
20260510120037 15 34 8.0 17.7 0.00 0.00 0.00 79 1008.4
20260510114536 15 25 9.7 19.3 0.00 0.00 0.00 78 1008.0
20260510113034 16 41 4.8 24.1 0.00 0.00 0.00 76 1008.0
20260510111537 16 17 14.5 29.0 0.00 0.00 0.00 77 1007.9
20260510110031 16 37 9.7 27.4 0.00 0.00 0.00 79 1007.8
20260510104535 16 32 9.7 17.7 0.00 0.00 0.00 80 1007.8
20260510103030 15 37 4.8 11.3 0.00 0.00 0.00 81 1007.5
20260510101526 15 49 6.4 12.9 0.00 0.00 0.00 81 1007.0
20260510100024 15 73 12.9 25.7 0.00 0.00 0.00 81 1006.5
20260510094524 16 14 14.5 24.1 0.00 0.00 0.00 80 1006.5
20260510093019 16 42 8.0 22.5 0.00 0.00 0.00 79 1006.3
20260510091515 16 37 11.3 20.9 0.00 0.00 0.00 79 1005.7
20260510090017 16 37 9.7 19.3 0.00 0.00 0.00 77 1005.5
20260510084509 16 29 11.3 20.9 0.00 0.00 0.00 75 1005.7
20260510083005 17 34 8.0 14.5 0.00 0.00 0.00 74 1005.6
20260510081515 17 48 4.8 17.7 0.00 0.00 0.00 73 1005.7
20260510080100 17 32 8.0 19.3 0.00 0.00 0.00 72 1005.3
20260510074557 18 57 9.7 19.3 0.00 0.00 0.00 72 1004.8
20260510073102 18 62 11.3 24.1 0.00 0.00 0.00 71 1004.2
20260510071551 18 15 8.0 19.3 0.00 0.00 0.00 71 1004.3
20260510070047 19 44 6.4 19.3 0.00 0.00 0.00 70 1004.5
20260510064554 19 27 6.4 17.7 0.00 0.00 0.00 69 1004.5
20260510063046 20 44 11.3 24.1 0.00 0.00 0.00 68 1004.4
20260510061546 20 39 12.9 30.6 0.00 0.00 0.00 67 1004.3
20260510060046 20 30 16.1 27.4 0.00 0.00 0.00 65 1004.4
20260510054536 21 34 8.0 16.1 0.00 0.00 0.00 62 1004.8
20260510053040 21 43 9.7 19.3 0.00 0.00 0.00 61 1004.1
20260510051527 21 43 8.0 12.9 0.00 0.00 0.00 58 1004.0
20260510050023 22 38 8.0 12.9 0.00 0.00 0.00 56 1004.1
20260510044540 23 43 1.6 8.0 0.00 0.00 0.00 47 1004.2
20260510043021 23 236 0.0 14.5 0.00 0.00 0.00 39 1004.1
20260510041621 23 58 1.6 11.3 0.00 0.00 0.00 36 1003.8
20260510040034 23 37 0.0 0.0 0.00 0.00 0.00 30 1004.0
20260510034520 24 6 0.0 3.2 0.00 0.00 0.00 22 1003.8
20260510033023 26 63 8.0 16.1 0.00 0.00 0.00 19 1003.9
20260510031519 27 64 0.0 9.7 0.00 0.00 0.00 15 1003.3
20260510030018 27 326 4.8 25.7 0.00 0.00 0.00 15 1002.8
20260510024517 25 4 0.0 0.0 0.00 0.00 0.00 16 1002.6
20260510023017 26 55 0.0 6.4 0.00 0.00 0.00 15 1001.9
20260510021517 26 58 0.0 3.2 0.00 0.00 0.00 15 1001.5
20260510020021 26 68 0.0 0.0 0.00 0.00 0.00 15 1001.3
20260510014515 27 70 0.0 0.0 0.00 0.00 0.00 14 1001.0
20260510013015 28 49 1.6 6.4 0.00 0.00 0.00 13 1000.8
20260510011518 30 66 1.6 8.0 0.00 0.00 0.00 11 1000.7
20260510010020 32 52 0.0 0.0 0.00 0.00 0.00 11 1000.7
20260510004514 32 52 0.0 1.6 0.00 0.00 0.00 11 1000.5
20260510003012 32 283 0.0 11.3 0.00 0.00 0.00 10 1000.7
20260510001511 32 340 0.0 12.9 0.00 0.00 0.00 10 1000.7
20260510000016 32 340 1.6 8.0 0.00 0.00 0.00 11 1000.8
20260509234511 32 295 1.6 12.9 0.00 0.00 0.00 11 1000.9
20260509233009 32 250 9.7 16.1 0.00 0.00 0.00 9 1001.2
20260509231506 31 301 1.6 17.7 0.00 0.00 0.00 10 1001.2
20260509230009 32 290 9.7 20.9 0.00 0.00 0.00 9 1001.3
20260509224503 32 283 6.4 20.9 0.00 0.00 0.00 8 1001.2
20260509223005 32 355 9.7 20.9 0.00 0.00 0.00 9 1001.4
20260509221501 32 354 12.9 25.7 0.00 0.00 0.00 10 1001.5
20260509214558 32 247 11.3 25.7 0.00 0.00 0.00 13 1001.6
20260509213056 32 259 0.0 27.4 0.00 0.00 0.00 14 1001.6
20260509211551 32 278 6.4 29.0 0.00 0.00 0.00 14 1001.9
20260509210048 32 301 11.3 19.3 0.00 0.00 0.00 13 1002.1
20260509204547 32 314 11.3 29.0 0.00 0.00 0.00 14 1002.3
20260509203045 31 330 9.7 29.0 0.00 0.00 0.00 17 1002.6